{"data":{"norad_id":57407,"epoch":"2026-09-20T05:56:07.350720Z","epoch_age_seconds":146057,"freshness":"FRESH","line1":"1 57407U 23102D   26263.24730730 -.00000299  00000+0 -13265-5 0  9999","line2":"2 57407  43.0038 215.3155 0001463 275.5995  84.4690 15.27576364176170","mean_motion":15.27576364,"eccentricity":0.0001463,"inclination_deg":43.0038,"raan_deg":215.3155,"arg_perigee_deg":275.5995,"mean_anomaly_deg":84.469,"bstar":-1.3265e-6,"rev_number":17617,"period_min":94.266973091239,"perigee_km":482.0561904346,"apogee_km":484.06377667199,"semimajor_km":6861.1969835533,"source":"CELESTRAK","updated_at":"2026-09-21T09:00:33.623083Z"}}